(°C)
19°
19°
19°
19°
20°
21°
22°
(°C)
20°
19°
19°
19°
20°
21°
23°
ZW
ZW
ZW
ZW
WZW
WNW
NW
(km/u)
10-24
9-22
8-19
7-17
7-17
8-19
9-20
(mm)
0
0
0
0
0
0
0
(%)
30
28
26
24
17
10
3

Zonverhoging

/ -20.7°
sun-icon
UV 7
05:08
20:21
Wassende maan (16°)
06:06
21:56

METAR voor Barnstable (KHYA)

Tijd Voorwaarden Temperatuur/
Dauwpunt
Wind Zicht Weer Wolken Luchtdruk Wijzigen Ruw
VFR 20°C / 15.6°C variable 0kt >10km - Few Clouds 6500ft
Broken Clouds 12000ft
1021 - KHYA 300556Z AUTO 00000KT 10SM FEW065 BKN120 20/16 A3015 RMK AO2 LTG DSNT NE AND E SLP212 T02000156 10217 20200 53001 $
VFR 21.1°C / 15.6°C 230º 10kt >10km - Broken Clouds 8000ft
Broken Clouds 9500ft
1020 - KHYA 300456Z AUTO 23010KT 10SM BKN080 BKN095 21/16 A3015 RMK AO2 SLP209 T02110156 402440133 $
VFR 20.6°C / 16.7°C 230º 10kt >10km - Clear 1021 - KHYA 300356Z AUTO 23010KT 10SM CLR 21/17 A3016 RMK AO2 SLP213 T02060167 $
VFR 21.1°C / 15°C 220º 9kt >10km - Clear 1021 - KHYA 300256Z AUTO 22009KT 10SM CLR 21/15 A3015 RMK AO2 SLP211 T02110150 58001 $
VFR 21.1°C / 15.6°C 210º 8kt >10km - Clear 1021 - KHYA 300156Z 21008KT 10SM CLR 21/16 A3015 RMK AO2 SLP212 T02110156 $
VFR 21.1°C / 16.7°C 200º 7kt >10km - Clear 1021 - KHYA 300056Z 20007KT 10SM CLR 21/17 A3016 RMK AO2 SLP213 T02110167
VFR 21.1°C / 17.2°C 200º 9kt >10km - Clear 1021 - KHYA 292356Z 20009KT 10SM CLR 21/17 A3015 RMK AO2 SLP212 T02110172 10244 20211 56006
VFR 22.2°C / 17.2°C 210º 9kt >10km - Clear 1021 - KHYA 292256Z 21009KT 10SM CLR 22/17 A3016 RMK AO2 SLP213 T02220172
VFR 22.8°C / 17.2°C 200º 9kt >10km - Clear 1021 - KHYA 292156Z 20009KT 10SM CLR 23/17 A3016 RMK AO2 SLP213 T02280172
VFR 23.3°C / 16.1°C 200º 10kt >10km - Clear 1021 - KHYA 292056Z 20010KT 10SM CLR 23/16 A3017 RMK AO2 SLP218 T02330161 56009
VFR 23.9°C / 15.6°C 180º 8kt >10km - Clear 1022 - KHYA 291956Z 18008KT 10SM CLR 24/16 A3018 RMK AO2 SLP220 T02390156
VFR 23.9°C / 15°C 200º 11kt Gust 16kt >10km - Clear 1022 - KHYA 291856Z 20011G16KT 10SM CLR 24/15 A3019 RMK AO2 SLP224 T02390150
VFR 24.4°C / 15.6°C 200º 9kt >10km - Clear 1022 - KHYA 291756Z 20009KT 10SM CLR 24/16 A3020 RMK AO2 SLP227 T02440156 10244 20217 58008
VFR 24.4°C / 15.6°C 180º 7kt >10km - Clear 1023 - KHYA 291656Z 18007KT 10SM CLR 24/16 A3021 RMK AO2 SLP232 T02440156
VFR 24.4°C / 15.6°C 170º 5kt >10km - Clear 1023 - KHYA 291556Z 17005KT 10SM CLR 24/16 A3022 RMK AO2 SLP234 T02440156
VFR 23.3°C / 17.2°C 160º 7kt >10km - Clear 1023 - KHYA 291456Z 16007KT 10SM CLR 23/17 A3022 RMK AO2 SLP236 T02330172 53003
VFR 22.2°C / 18.3°C 170º 5kt >10km - Clear 1023 - KHYA 291356Z 17005KT 10SM CLR 22/18 A3022 RMK AO2 SLP234 T02220183
VFR 22.2°C / 18.3°C variable 4kt >10km - Clear 1023 - KHYA 291256Z VRB04KT 10SM CLR 22/18 A3022 RMK AO2 SLP233 T02220183
VFR 22.2°C / 18.3°C 150º 3kt >10km - Clear 1023 - KHYA 291156Z 15003KT 10SM CLR 22/18 A3022 RMK AO2 SLP233 T02220183 10222 20133 51007
VFR 18.3°C / 15.6°C variable 0kt >10km - Clear 1023 - KHYA 291056Z 00000KT 10SM CLR 18/16 A3021 RMK AO2 SLP231 T01830156 $
VFR 14.4°C / 12.8°C variable 0kt >10km - Clear 1022 - KHYA 290956Z 00000KT 10SM CLR 14/13 A3020 RMK AO2 SLP229 T01440128 $
VFR 13.9°C / 12.2°C variable 0kt >10km - Clear 1022 - KHYA 290856Z AUTO 00000KT 10SM CLR 14/12 A3019 RMK AO2 SLP226 T01390122 51003
VFR 14.4°C / 12.2°C variable 0kt >10km - Clear 1022 - KHYA 290756Z AUTO 00000KT 10SM CLR 14/12 A3019 RMK AO2 SLP225 T01440122
VFR 14.4°C / 12.8°C variable 0kt >10km - Clear 1022 - KHYA 290656Z AUTO 00000KT 10SM CLR 14/13 A3019 RMK AO2 SLP225 T01440128

VFR

20°C / 15.6°C

[Meer]
Wind variable 0kt
Zicht >10km
Weer -
Wolken Few Clouds 6500ft
Broken Clouds 12000ft
Luchtdruk 1021
Wijzigen -
Ruw KHYA 300556Z AUTO 00000KT 10SM FEW065 BKN120 20/16 A3015 RMK AO2 LTG DSNT NE AND E SLP212 T02000156 10217 20200 53001 $

VFR

21.1°C / 15.6°C

[Meer]
Wind 230º 10kt
Zicht >10km
Weer -
Wolken Broken Clouds 8000ft
Broken Clouds 9500ft
Luchtdruk 1020
Wijzigen -
Ruw KHYA 300456Z AUTO 23010KT 10SM BKN080 BKN095 21/16 A3015 RMK AO2 SLP209 T02110156 402440133 $

VFR

20.6°C / 16.7°C

[Meer]
Wind 230º 10kt
Zicht >10km
Weer -
Wolken Clear
Luchtdruk 1021
Wijzigen -
Ruw KHYA 300356Z AUTO 23010KT 10SM CLR 21/17 A3016 RMK AO2 SLP213 T02060167 $

VFR

21.1°C / 15°C

[Meer]
Wind 220º 9kt
Zicht >10km
Weer -
Wolken Clear
Luchtdruk 1021
Wijzigen -
Ruw KHYA 300256Z AUTO 22009KT 10SM CLR 21/15 A3015 RMK AO2 SLP211 T02110150 58001 $

VFR

21.1°C / 15.6°C

[Meer]
Wind 210º 8kt
Zicht >10km
Weer -
Wolken Clear
Luchtdruk 1021
Wijzigen -
Ruw KHYA 300156Z 21008KT 10SM CLR 21/16 A3015 RMK AO2 SLP212 T02110156 $

VFR

21.1°C / 16.7°C

[Meer]
Wind 200º 7kt
Zicht >10km
Weer -
Wolken Clear
Luchtdruk 1021
Wijzigen -
Ruw KHYA 300056Z 20007KT 10SM CLR 21/17 A3016 RMK AO2 SLP213 T02110167

VFR

21.1°C / 17.2°C

[Meer]
Wind 200º 9kt
Zicht >10km
Weer -
Wolken Clear
Luchtdruk 1021
Wijzigen -
Ruw KHYA 292356Z 20009KT 10SM CLR 21/17 A3015 RMK AO2 SLP212 T02110172 10244 20211 56006

VFR

22.2°C / 17.2°C

[Meer]
Wind 210º 9kt
Zicht >10km
Weer -
Wolken Clear
Luchtdruk 1021
Wijzigen -
Ruw KHYA 292256Z 21009KT 10SM CLR 22/17 A3016 RMK AO2 SLP213 T02220172

VFR

22.8°C / 17.2°C

[Meer]
Wind 200º 9kt
Zicht >10km
Weer -
Wolken Clear
Luchtdruk 1021
Wijzigen -
Ruw KHYA 292156Z 20009KT 10SM CLR 23/17 A3016 RMK AO2 SLP213 T02280172

VFR

23.3°C / 16.1°C

[Meer]
Wind 200º 10kt
Zicht >10km
Weer -
Wolken Clear
Luchtdruk 1021
Wijzigen -
Ruw KHYA 292056Z 20010KT 10SM CLR 23/16 A3017 RMK AO2 SLP218 T02330161 56009

VFR

23.9°C / 15.6°C

[Meer]
Wind 180º 8kt
Zicht >10km
Weer -
Wolken Clear
Luchtdruk 1022
Wijzigen -
Ruw KHYA 291956Z 18008KT 10SM CLR 24/16 A3018 RMK AO2 SLP220 T02390156

VFR

23.9°C / 15°C

[Meer]
Wind 200º 11kt Gust 16kt
Zicht >10km
Weer -
Wolken Clear
Luchtdruk 1022
Wijzigen -
Ruw KHYA 291856Z 20011G16KT 10SM CLR 24/15 A3019 RMK AO2 SLP224 T02390150

VFR

24.4°C / 15.6°C

[Meer]
Wind 200º 9kt
Zicht >10km
Weer -
Wolken Clear
Luchtdruk 1022
Wijzigen -
Ruw KHYA 291756Z 20009KT 10SM CLR 24/16 A3020 RMK AO2 SLP227 T02440156 10244 20217 58008

VFR

24.4°C / 15.6°C

[Meer]
Wind 180º 7kt
Zicht >10km
Weer -
Wolken Clear
Luchtdruk 1023
Wijzigen -
Ruw KHYA 291656Z 18007KT 10SM CLR 24/16 A3021 RMK AO2 SLP232 T02440156

VFR

24.4°C / 15.6°C

[Meer]
Wind 170º 5kt
Zicht >10km
Weer -
Wolken Clear
Luchtdruk 1023
Wijzigen -
Ruw KHYA 291556Z 17005KT 10SM CLR 24/16 A3022 RMK AO2 SLP234 T02440156

VFR

23.3°C / 17.2°C

[Meer]
Wind 160º 7kt
Zicht >10km
Weer -
Wolken Clear
Luchtdruk 1023
Wijzigen -
Ruw KHYA 291456Z 16007KT 10SM CLR 23/17 A3022 RMK AO2 SLP236 T02330172 53003

VFR

22.2°C / 18.3°C

[Meer]
Wind 170º 5kt
Zicht >10km
Weer -
Wolken Clear
Luchtdruk 1023
Wijzigen -
Ruw KHYA 291356Z 17005KT 10SM CLR 22/18 A3022 RMK AO2 SLP234 T02220183

VFR

22.2°C / 18.3°C

[Meer]
Wind variable 4kt
Zicht >10km
Weer -
Wolken Clear
Luchtdruk 1023
Wijzigen -
Ruw KHYA 291256Z VRB04KT 10SM CLR 22/18 A3022 RMK AO2 SLP233 T02220183

VFR

22.2°C / 18.3°C

[Meer]
Wind 150º 3kt
Zicht >10km
Weer -
Wolken Clear
Luchtdruk 1023
Wijzigen -
Ruw KHYA 291156Z 15003KT 10SM CLR 22/18 A3022 RMK AO2 SLP233 T02220183 10222 20133 51007

VFR

18.3°C / 15.6°C

[Meer]
Wind variable 0kt
Zicht >10km
Weer -
Wolken Clear
Luchtdruk 1023
Wijzigen -
Ruw KHYA 291056Z 00000KT 10SM CLR 18/16 A3021 RMK AO2 SLP231 T01830156 $

VFR

14.4°C / 12.8°C

[Meer]
Wind variable 0kt
Zicht >10km
Weer -
Wolken Clear
Luchtdruk 1022
Wijzigen -
Ruw KHYA 290956Z 00000KT 10SM CLR 14/13 A3020 RMK AO2 SLP229 T01440128 $

VFR

13.9°C / 12.2°C

[Meer]
Wind variable 0kt
Zicht >10km
Weer -
Wolken Clear
Luchtdruk 1022
Wijzigen -
Ruw KHYA 290856Z AUTO 00000KT 10SM CLR 14/12 A3019 RMK AO2 SLP226 T01390122 51003

VFR

14.4°C / 12.2°C

[Meer]
Wind variable 0kt
Zicht >10km
Weer -
Wolken Clear
Luchtdruk 1022
Wijzigen -
Ruw KHYA 290756Z AUTO 00000KT 10SM CLR 14/12 A3019 RMK AO2 SLP225 T01440122

VFR

14.4°C / 12.8°C

[Meer]
Wind variable 0kt
Zicht >10km
Weer -
Wolken Clear
Luchtdruk 1022
Wijzigen -
Ruw KHYA 290656Z AUTO 00000KT 10SM CLR 14/13 A3019 RMK AO2 SLP225 T01440128

TAF voor Barnstable (KHYA)

From till


From till Wind 240º 8kt. Visibility 10km or more. Scattered Clouds 8000ft.
From till Wind 300º 6kt. Visibility 10km or more. Few Clouds 12000ft.
From till Wind 350º 6kt. Visibility 10km or more. Few Clouds 12000ft.
From till Wind 40º 5kt. Visibility 10km or more. Few Clouds 12000ft.
From till Wind 170º 6kt. Visibility 10km or more. Scattered Clouds 11000ft.

Ruw: KHYA 300521Z 3006/0106 24008KT P6SM SCT080 FM301200 30006KT P6SM FEW120 FM301600 35006KT P6SM FEW120 FM301800 04005KT P6SM FEW120 FM302300 17006KT P6SM SCT110

Radar en neerslag nowcast voor Barnstable

Motregen
Licht
Matig
Zwaar
Zeer zwaar
Hagel

De locatiemarkering is op Barnstable geplaatst . Deze animation toont de neerslag radar van het afgelopen uur, maar ook de 1h verwachting. Motregen of lichte sneeuwval kan onzichtbaar zijn voor de radar. De neerslagintensiteit wordt met kleuren weergegeven, van lichtblauw tot oranje.

Huidige satellietbeelden voor Barnstable, Verenigde Staten

De locatiemarkering is op Barnstable geplaatst. [Meer]

Het realtime satellietbeeld combineert zichtbaar licht overdag met infraroodstraling 's nachts. 's Nachts is het beeld niet donker, omdat infraroodstraling temperatuurverschillen kan waarnemen. Helaas zijn lage wolken en mist moeilijk te onderscheiden van grondtemperaturen en kunnen dus 's nachts bijna onzichtbaar zijn. Meteosat-satellietbeelden voor Europa worden elke 5 minuten in real time bijgewerkt. De beelden van GOES-16/GOES-17 (Noord- en Zuid-Amerika) en Himawari (Azië) worden om de 10 minuten bijgewerkt.

Terug naar boven